#ZEITBEREICH: 18.05.2023 bis 18.05.2024
Datum;Zeit;SOES F AM1H [%];SOES NO AM1H [�g/m�];SOES NO2 AM1H [�g/m�];SOES O3 AM1H [�g/m�];SOES PM10F GM24H [�g/m�];SOES T AM1H [�C];SOES WG SM1H [m/s];SOES WR VM1H [�]
18.05.2023;01:00;79,0;<7;11;30;11;5,6;2,0;81
18.05.2023;02:00;82,2;<7;13;25;11;4,8;1,3;86
18.05.2023;03:00;84,0;<7;11;23;12;4,3;1,7;103
18.05.2023;04:00;86,6;<7;<10;;12;3,3;0,9;78
18.05.2023;05:00;86,8;<7;<10;16;12;3,1;0,9;79
18.05.2023;06:00;83,7;<7;11;11;12;3,4;0,8;55
18.05.2023;07:00;81,4;<7;<10;27;12;5,2;1,0;56
18.05.2023;08:00;76,0;<7;<10;50;12;6,7;3,0;47
18.05.2023;09:00;71,2;<7;<10;63;11;8,0;3,4;50
18.05.2023;10:00;66,6;<7;<10;69;11;9,4;3,9;39
18.05.2023;11:00;61,6;<7;<10;77;12;10,6;3,8;37
18.05.2023;12:00;59,8;<7;<10;80;12;11,8;3,4;53
18.05.2023;13:00;56,6;<7;<10;84;12;12,7;4,0;34
18.05.2023;14:00;53,8;<7;<10;86;12;13,4;4,1;35
18.05.2023;15:00;52,1;<7;<10;88;12;14,1;4,1;33
18.05.2023;16:00;50,0;<7;<10;91;12;14,7;4,5;40
18.05.2023;17:00;47,7;<7;<10;93;12;15,3;4,2;50
18.05.2023;18:00;46,8;<7;<10;93;12;15,4;4,4;48
18.05.2023;19:00;48,5;<7;<10;91;11;15,1;4,5;50
18.05.2023;20:00;54,1;;;83;11;14,0;4,1;53
18.05.2023;21:00;61,1;<7;<10;72;11;12,3;3,7;53
18.05.2023;22:00;69,0;<7;<10;49;11;10,6;2,4;75
18.05.2023;23:00;73,1;<7;10;31;11;9,6;2,0;112
18.05.2023;24:00;75,2;<7;<10;37;11;8,7;1,4;63
19.05.2023;01:00;79,1;<7;<10;32;11;7,6;1,1;93
19.05.2023;02:00;81,9;<7;10;24;11;6,7;1,0;86
19.05.2023;03:00;81,9;<7;<10;26;11;6,5;1,2;105
19.05.2023;04:00;80,7;<7;10;21;11;6,4;1,3;127
19.05.2023;05:00;83,5;<7;11;;11;5,6;1,5;110
19.05.2023;06:00;80,8;<7;11;7;11;6,0;1,1;107
19.05.2023;07:00;78,8;<7;<10;23;11;7,6;1,1;46
19.05.2023;08:00;73,8;<7;<10;43;11;9,6;1,9;51
19.05.2023;09:00;69,4;<7;<10;46;11;11,8;2,3;45
19.05.2023;10:00;61,6;<7;<10;58;12;13,9;3,0;49
19.05.2023;11:00;54,4;<7;<10;77;11;15,0;4,0;40
19.05.2023;12:00;47,8;<7;<10;88;11;15,9;5,2;52
19.05.2023;13:00;46,3;<7;<10;92;11;16,5;5,4;52
19.05.2023;14:00;45,3;<7;<10;95;11;17,1;5,0;51
19.05.2023;15:00;43,9;<7;<10;97;11;17,4;5,1;45
19.05.2023;16:00;43,5;<7;<10;98;11;17,8;5,3;49
19.05.2023;17:00;43,5;<7;<10;99;11;17,9;5,8;49
19.05.2023;18:00;45,2;<7;<10;95;11;17,7;6,2;55
19.05.2023;19:00;47,6;<7;<10;90;11;17,2;6,0;63
19.05.2023;20:00;54,2;<7;<10;73;11;15,8;4,1;66
19.05.2023;21:00;57,3;;;63;11;14,6;3,2;64
19.05.2023;22:00;61,8;<7;<10;46;11;13,6;2,3;74
19.05.2023;23:00;65,6;<7;11;31;11;12,5;1,7;91
19.05.2023;24:00;70,8;<7;<10;30;11;11,1;1,2;80
20.05.2023;01:00;74,4;<7;<10;28;11;10,2;1,6;58
20.05.2023;02:00;76,2;<7;<10;29;11;9,7;1,4;59
20.05.2023;03:00;79,5;<7;<10;23;11;9,0;1,8;89
20.05.2023;04:00;81,1;<7;<10;24;11;8,5;1,8;65
20.05.2023;05:00;80,9;<7;<10;28;11;8,5;1,6;62
20.05.2023;06:00;80,5;<7;<10;;11;8,5;2,1;87
20.05.2023;07:00;83,1;<7;<10;28;11;8,8;1,8;53
20.05.2023;08:00;84,8;<7;<10;34;11;9,8;2,5;58
20.05.2023;09:00;80,3;<7;<10;44;11;11,4;3,8;41
20.05.2023;10:00;74,9;<7;<10;55;11;12,8;5,5;51
20.05.2023;11:00;71,3;<7;<10;61;11;14,3;5,1;54
20.05.2023;12:00;66,5;<7;<10;71;11;16,0;6,4;60
20.05.2023;13:00;65,9;<7;<10;76;11;16,1;6,3;52
20.05.2023;14:00;65,7;<7;<10;76;11;16,1;6,1;62
20.05.2023;15:00;64,9;<7;<10;77;11;16,3;6,4;54
20.05.2023;16:00;65,4;<7;<10;79;11;16,2;5,9;53
20.05.2023;17:00;66,5;<7;<10;78;11;16,1;5,9;50
20.05.2023;18:00;68,5;<7;<10;75;12;15,8;6,3;48
20.05.2023;19:00;70,1;<7;<10;73;12;15,6;4,9;49
20.05.2023;20:00;71,6;<7;<10;69;12;15,3;4,8;48
20.05.2023;21:00;73,8;<7;<10;65;12;14,9;3,7;48
20.05.2023;22:00;75,9;;;60;12;14,4;3,4;47
20.05.2023;23:00;79,5;<7;<10;51;12;13,7;2,1;63
20.05.2023;24:00;81,5;<7;<10;39;13;13,1;1,6;92
21.05.2023;01:00;83,7;<7;11;29;13;12,3;1,1;121
21.05.2023;02:00;84,6;<7;14;23;13;11,8;0,6;135
21.05.2023;03:00;;;;;13;;;
21.05.2023;04:00;;;;;13;;;
21.05.2023;05:00;89,5;<7;<10;11;13;10,4;1,1;120
21.05.2023;06:00;88,9;<7;<10;11;14;10,4;0,5;7
21.05.2023;07:00;89,5;<7;<10;;14;10,8;0,8;67
21.05.2023;08:00;90,1;<7;<10;33;14;11,9;2,1;48
21.05.2023;09:00;87,5;<7;<10;36;15;13,0;2,7;32
21.05.2023;10:00;82,8;<7;<10;45;15;14,8;2,7;28
21.05.2023;11:00;79,5;<7;<10;52;15;16,2;2,8;27
21.05.2023;12:00;75,8;<7;<10;61;16;18,1;2,7;30
21.05.2023;13:00;73,4;<7;<10;70;16;19,3;3,2;38
21.05.2023;14:00;69,1;<7;<10;77;17;20,9;4,6;51
21.05.2023;15:00;64,1;<7;<10;83;18;22,4;4,7;60
21.05.2023;16:00;62,9;<7;<10;87;18;22,8;4,8;57
21.05.2023;17:00;62,3;<7;<10;89;18;23,2;5,8;52
21.05.2023;18:00;60,8;<7;<10;96;19;23,8;5,0;42
21.05.2023;19:00;61,6;<7;<10;95;19;23,8;4,3;33
21.05.2023;20:00;68,2;<7;<10;103;19;20,6;6,0;85
21.05.2023;21:00;83,7;<7;<10;92;19;17,2;3,0;342
21.05.2023;22:00;86,8;<7;<10;86;19;16,9;1,9;282
21.05.2023;23:00;87,8;;;72;19;17,0;2,0;205
21.05.2023;24:00;89,7;<7;11;45;19;16,6;1,0;157
22.05.2023;01:00;92,1;<7;15;24;19;16,1;1,4;171
22.05.2023;02:00;92,4;<7;12;23;19;15,5;0,9;178
22.05.2023;03:00;92,2;<7;12;33;19;15,7;2,2;103
22.05.2023;04:00;90,8;<7;<10;54;19;15,9;1,2;225
22.05.2023;05:00;93,7;<7;12;24;19;15,3;0,8;195
22.05.2023;06:00;95,1;<7;25;11;19;14,8;1,4;236
22.05.2023;07:00;91,4;<7;25;16;19;15,6;0,7;212
22.05.2023;08:00;85,7;<7;22;32;19;17,3;0,4;
22.05.2023;09:00;81,1;<7;17;43;19;19,2;0,6;
22.05.2023;10:00;83,3;<7;12;41;19;19,4;1,4;266
22.05.2023;11:00;81,5;<7;10;47;19;20,1;2,7;274
22.05.2023;12:00;80,1;<7;11;65;19;21,0;3,2;281
22.05.2023;13:00;75,7;<7;<10;87;20;21,7;3,3;305
22.05.2023;14:00;71,2;<7;<10;99;20;22,8;2,7;311
22.05.2023;15:00;67,5;<7;<10;100;20;23,1;1,9;9
22.05.2023;16:00;81,8;<7;<10;97;21;17,4;5,2;127
22.05.2023;17:00;90,7;<7;<10;90;21;16,1;3,8;240
22.05.2023;18:00;89,6;<7;<10;88;20;16,2;4,8;208
22.05.2023;19:00;87,4;<7;<10;76;20;16,7;1,8;243
22.05.2023;20:00;91,7;<7;<10;78;19;16,5;2,7;276
22.05.2023;21:00;95,2;<7;11;80;20;16,3;1,8;202
22.05.2023;22:00;94,5;<7;12;67;20;16,3;1,4;213
22.05.2023;23:00;95,6;<7;13;;20;16,0;3,1;234
22.05.2023;24:00;94,9;;;58;21;15,6;3,8;267
23.05.2023;01:00;91,4;<7;<10;68;21;14,5;3,6;247
23.05.2023;02:00;93,1;<7;<10;68;21;13,5;3,5;250
23.05.2023;03:00;90,7;<7;<10;86;21;13,5;5,2;267
23.05.2023;04:00;90,6;<7;<10;88;21;13,2;4,2;270
23.05.2023;05:00;94,5;<7;<10;79;20;12,9;3,6;248
23.05.2023;06:00;96,1;<7;<10;76;20;12,9;4,0;267
23.05.2023;07:00;95,3;<7;<10;77;20;13,1;4,3;274
23.05.2023;08:00;94,6;<7;<10;75;20;12,9;5,3;285
23.05.2023;09:00;92,6;<7;<10;78;19;12,5;6,4;308
23.05.2023;10:00;92,4;<7;<10;76;18;12,1;6,3;304
23.05.2023;11:00;92,3;<7;<10;69;18;11,7;7,3;307
23.05.2023;12:00;90,7;<7;<10;63;17;11,6;6,7;310
23.05.2023;13:00;85,6;<7;<10;69;16;11,6;5,9;310
23.05.2023;14:00;78,3;<7;<10;68;15;12,2;5,9;314
23.05.2023;15:00;71,6;<7;<10;74;15;13,2;4,2;306
23.05.2023;16:00;64,9;<7;<10;81;14;14,0;5,6;318
23.05.2023;17:00;61,1;<7;<10;82;14;14,0;5,6;324
23.05.2023;18:00;61,9;<7;<10;80;14;13,5;5,0;328
23.05.2023;19:00;62,3;<7;<10;77;14;13,3;4,1;326
23.05.2023;20:00;62,9;<7;<10;76;14;12,6;3,6;321
23.05.2023;21:00;66,8;<7;<10;68;14;11,3;3,1;325
23.05.2023;22:00;68,9;<7;<10;67;14;10,2;3,4;329
23.05.2023;23:00;71,0;<7;<10;71;13;9,1;2,9;337
23.05.2023;24:00;75,6;<7;<10;;13;8,2;1,5;291
24.05.2023;01:00;77,1;;;55;12;7,6;1,9;277
24.05.2023;02:00;80,7;<7;<10;41;12;6,8;1,5;239
24.05.2023;03:00;82,3;<7;<10;38;12;6,3;2,3;232
24.05.2023;04:00;84,0;<7;<10;34;12;6,0;2,4;236
24.05.2023;05:00;86,0;<7;<10;32;12;5,7;2,6;240
24.05.2023;06:00;86,6;<7;12;34;12;5,9;2,4;232
24.05.2023;07:00;86,9;<7;12;42;12;6,9;3,3;245
24.05.2023;08:00;86,5;<7;<10;49;12;7,7;2,9;262
24.05.2023;09:00;83,3;<7;<10;56;13;9,0;2,9;292
24.05.2023;10:00;78,7;<7;<10;63;13;9,8;3,2;313
24.05.2023;11:00;73,0;<7;<10;69;13;10,6;2,8;304
24.05.2023;12:00;72,0;<7;<10;69;14;10,6;3,5;307
24.05.2023;13:00;71,1;<7;<10;70;14;11,0;3,0;323
24.05.2023;14:00;71,5;<7;<10;69;14;11,3;2,4;312
24.05.2023;15:00;72,8;<7;<10;67;14;11,2;2,5;315
24.05.2023;16:00;73,5;<7;<10;67;14;11,3;2,4;307
24.05.2023;17:00;71,0;<7;<10;70;14;12,1;1,1;302
24.05.2023;18:00;70,1;<7;<10;70;14;12,5;1,0;333
24.05.2023;19:00;68,6;<7;<10;68;14;13,0;0,8;326
24.05.2023;20:00;70,6;<7;<10;55;14;12,8;0,5;
24.05.2023;21:00;77,2;<7;<10;32;15;11,5;1,2;200
24.05.2023;22:00;85,4;<7;19;14;15;9,7;1,9;179
24.05.2023;23:00;88,1;<7;15;15;15;9,0;1,2;204
24.05.2023;24:00;88,6;<7;13;14;15;8,4;0,7;170
25.05.2023;01:00;90,1;<7;<10;;15;7,9;0,8;181
25.05.2023;02:00;91,2;;;10;15;7,4;1,0;237
25.05.2023;03:00;90,2;<7;<10;11;15;7,8;1,4;190
25.05.2023;04:00;91,8;<7;11;8;16;7,2;1,1;293
25.05.2023;05:00;95,2;<7;11;<4;16;6,4;1,1;204
25.05.2023;06:00;91,7;20;14;<4;16;6,7;1,0;212
25.05.2023;07:00;91,3;20;15;<4;16;8,0;0,5;
25.05.2023;08:00;89,7;<7;13;18;16;9,3;1,2;342
25.05.2023;09:00;87,1;<7;<10;44;16;10,0;1,9;20
25.05.2023;10:00;84,3;<7;<10;53;16;10,5;1,6;20
25.05.2023;11:00;81,8;<7;<10;63;16;10,7;3,0;352
25.05.2023;12:00;79,1;<7;<10;72;16;11,1;3,1;357
25.05.2023;13:00;75,6;<7;<10;76;16;12,1;3,0;56
25.05.2023;14:00;73,6;<7;<10;77;16;12,9;1,4;35
25.05.2023;15:00;72,7;<7;<10;74;16;13,6;2,4;57
25.05.2023;16:00;69,5;<7;<10;78;16;13,9;3,3;13
25.05.2023;17:00;66,0;<7;<10;81;16;14,5;2,8;33
25.05.2023;18:00;65,2;<7;<10;81;16;14,8;2,3;29
25.05.2023;19:00;65,5;<7;<10;75;16;14,9;2,0;79
25.05.2023;20:00;65,9;<7;<10;66;16;15,4;0,5;158
25.05.2023;21:00;72,0;<7;<10;44;16;13,6;0,9;135
25.05.2023;22:00;82,1;<7;24;14;16;11,6;1,3;117
25.05.2023;23:00;78,7;<7;<10;51;16;11,3;2,7;25
25.05.2023;24:00;76,4;<7;<10;68;16;10,3;3,2;18
26.05.2023;01:00;80,3;<7;<10;60;16;9,2;1,9;12
26.05.2023;02:00;84,1;<7;<10;;16;8,3;1,9;338
26.05.2023;03:00;87,7;;;52;16;7,5;1,8;335
26.05.2023;04:00;89,3;<7;<10;40;16;7,0;0,9;230
26.05.2023;05:00;90,2;<7;<10;37;16;6,9;1,0;281
26.05.2023;06:00;91,6;<7;<10;44;16;6,9;1,2;335
26.05.2023;07:00;89,0;<7;<10;50;16;8,0;2,2;19
26.05.2023;08:00;85,5;<7;<10;60;16;8,5;3,2;36
26.05.2023;09:00;82,1;<7;<10;59;16;9,2;2,8;19
26.05.2023;10:00;77,1;<7;<10;61;16;10,8;2,5;39
26.05.2023;11:00;72,3;<7;<10;64;16;12,4;2,6;12
26.05.2023;12:00;69,0;<7;<10;70;17;13,2;2,9;13
26.05.2023;13:00;67,9;<7;<10;78;17;14,0;3,4;6
26.05.2023;14:00;63,3;<7;<10;82;17;14,9;3,7;10
26.05.2023;15:00;50,4;<7;<10;89;17;15,7;4,2;9
26.05.2023;16:00;47,7;<7;<10;93;17;16,1;4,7;22
26.05.2023;17:00;48,5;<7;<10;93;17;16,3;4,8;25
26.05.2023;18:00;52,6;<7;<10;92;17;16,4;4,5;21
26.05.2023;19:00;53,0;<7;<10;97;17;16,2;4,2;14
26.05.2023;20:00;59,0;<7;<10;88;18;14,9;4,1;0
26.05.2023;21:00;62,5;<7;<10;82;18;13,2;4,0;16
26.05.2023;22:00;67,4;<7;<10;64;18;12,0;2,0;40
26.05.2023;23:00;71,7;<7;<10;56;18;10,8;2,2;71
26.05.2023;24:00;75,4;;;;17;9,6;2,1;81
27.05.2023;01:00;79,3;<7;<10;37;17;8,5;1,1;75
27.05.2023;02:00;82,5;<7;<10;26;17;7,6;0,8;108
27.05.2023;03:00;85,1;<7;<10;25;17;7,1;1,4;111
27.05.2023;04:00;87,2;<7;<10;22;17;6,3;0,9;114
27.05.2023;05:00;89,2;<7;<10;21;17;5,9;1,0;91
27.05.2023;06:00;88,5;<7;<10;19;16;6,1;1,3;56
27.05.2023;07:00;86,8;<7;<10;30;16;7,8;1,8;41
27.05.2023;08:00;83,2;<7;<10;41;16;9,8;2,7;58
27.05.2023;09:00;78,0;<7;<10;47;16;11,9;2,8;38
27.05.2023;10:00;72,4;<7;<10;56;16;14,0;3,8;41
27.05.2023;11:00;65,0;<7;<10;74;15;15,6;4,1;45
27.05.2023;12:00;56,5;<7;<10;89;15;16,7;5,1;54
27.05.2023;13:00;56,4;<7;<10;89;15;17,4;4,6;54
27.05.2023;14:00;53,6;<7;<10;89;15;18,2;5,1;47
27.05.2023;15:00;50,7;<7;<10;89;15;19,1;4,9;45
27.05.2023;16:00;48,3;<7;<10;90;14;19,8;4,7;51
27.05.2023;17:00;44,8;<7;<10;93;14;20,3;4,4;46
27.05.2023;18:00;44,2;<7;<10;98;14;20,3;4,7;48
27.05.2023;19:00;44,6;<7;<10;98;14;20,0;4,6;52
27.05.2023;20:00;49,5;<7;<10;84;13;19,1;3,5;57
27.05.2023;21:00;56,9;<7;<10;61;13;17,3;2,8;83
27.05.2023;22:00;62,9;<7;13;42;13;15,5;1,9;92
27.05.2023;23:00;66,9;<7;14;33;13;13,8;1,4;117
27.05.2023;24:00;71,8;<7;<10;31;13;12,1;1,7;78
28.05.2023;01:00;74,6;;;;13;11,0;2,0;101
28.05.2023;02:00;77,5;<7;<10;32;13;10,1;2,1;99
28.05.2023;03:00;79,7;<7;<10;28;13;9,5;2,0;140
28.05.2023;04:00;78,0;<7;<10;31;13;9,2;1,5;128
28.05.2023;05:00;83,2;<7;<10;28;13;7,9;1,6;137
28.05.2023;06:00;79,1;<7;<10;29;12;9,3;1,2;145
28.05.2023;07:00;77,4;<7;<10;36;12;10,3;1,1;325
28.05.2023;08:00;70,3;<7;<10;45;12;13,4;0,6;115
28.05.2023;09:00;69,0;<7;<10;50;12;15,2;1,7;18
28.05.2023;10:00;61,6;<7;<10;69;12;17,1;2,9;34
28.05.2023;11:00;52,2;<7;<10;87;11;18,5;3,6;43
28.05.2023;12:00;49,1;<7;<10;92;11;19,6;4,1;45
28.05.2023;13:00;43,7;<7;<10;96;11;20,5;3,9;41
28.05.2023;14:00;41,8;<7;<10;97;10;21,2;3,6;54
28.05.2023;15:00;42,2;<7;<10;100;10;22,0;2,9;26
28.05.2023;16:00;43,9;<7;<10;102;10;22,1;3,7;4
28.05.2023;17:00;45,0;<7;<10;104;10;22,2;4,1;9
28.05.2023;18:00;46,0;<7;<10;106;10;22,0;4,2;8
28.05.2023;19:00;44,7;<7;<10;108;<10;21,7;4,0;11
28.05.2023;20:00;50,5;<7;<10;97;<10;20,6;2,9;353
28.05.2023;21:00;55,5;<7;<10;99;<10;18,9;4,0;7
28.05.2023;22:00;62,8;<7;<10;87;<10;16,9;4,6;18
28.05.2023;23:00;69,8;<7;<10;71;<10;15,2;3,1;18
28.05.2023;24:00;73,1;<7;<10;59;<10;13,8;1,8;52
29.05.2023;01:00;76,3;<7;<10;53;<10;12,7;2,2;336
29.05.2023;02:00;79,3;;;;<10;11,4;2,8;341
29.05.2023;03:00;83,8;<7;<10;52;<10;10,4;3,2;345
29.05.2023;04:00;83,8;<7;<10;57;<10;9,7;2,4;354
29.05.2023;05:00;84,6;<7;<10;50;<10;9,1;0,9;299
29.05.2023;06:00;83,8;<7;<10;46;<10;9,3;1,1;320
29.05.2023;07:00;80,6;<7;<10;54;<10;10,1;2,4;19
29.05.2023;08:00;78,1;<7;<10;57;<10;11,1;2,7;45
29.05.2023;09:00;74,8;<7;<10;59;<10;12,3;3,0;15
29.05.2023;10:00;70,6;<7;<10;64;<10;13,5;3,8;35
29.05.2023;11:00;66,9;<7;<10;67;<10;14,4;4,3;9
29.05.2023;12:00;63,8;<7;<10;71;<10;15,2;4,1;15
29.05.2023;13:00;61,7;<7;<10;76;10;16,0;4,5;9
29.05.2023;14:00;58,9;<7;<10;83;10;17,0;4,0;9
29.05.2023;15:00;56,8;<7;<10;86;10;17,7;4,0;10
29.05.2023;16:00;54,7;<7;<10;89;10;17,9;4,6;356
29.05.2023;17:00;53,9;<7;<10;90;10;18,1;4,8;356
29.05.2023;18:00;49,6;<7;<10;95;10;18,0;4,8;358
29.05.2023;19:00;45,2;<7;<10;97;10;17,6;5,0;356
29.05.2023;20:00;45,9;<7;<10;92;11;16,5;4,3;0
29.05.2023;21:00;48,7;<7;<10;85;11;14,7;3,7;356
29.05.2023;22:00;52,5;<7;<10;83;10;13,3;3,4;8
29.05.2023;23:00;59,1;<7;<10;77;10;12,0;3,1;11
29.05.2023;24:00;63,0;<7;<10;72;11;10,9;2,8;12
30.05.2023;01:00;67,8;<7;<10;66;11;9,7;2,3;0
30.05.2023;02:00;75,0;<7;<10;62;11;8,9;2,0;3
30.05.2023;03:00;80,3;;;;11;8,2;1,1;333
30.05.2023;04:00;82,8;<7;<10;54;11;8,4;1,3;20
30.05.2023;05:00;84,3;<7;<10;47;11;8,2;1,0;333
30.05.2023;06:00;85,3;<7;11;46;12;8,3;1,0;321
30.05.2023;07:00;84,1;<7;<10;58;12;9,1;2,3;360
30.05.2023;08:00;79,8;<7;<10;69;12;9,7;2,9;47
30.05.2023;09:00;77,4;<7;<10;71;12;10,3;2,5;18
30.05.2023;10:00;74,8;<7;<10;74;13;11,1;2,3;358
30.05.2023;11:00;72,0;;;;13;12,4;2,4;57
30.05.2023;12:00;67,7;;;;13;13,8;2,4;44
30.05.2023;13:00;62,5;;;;14;15,1;2,8;43
30.05.2023;14:00;59,0;<7;<10;91;14;16,2;3,9;20
30.05.2023;15:00;56,4;<7;<10;93;14;17,3;3,6;16
30.05.2023;16:00;57,4;<7;<10;93;14;17,9;3,9;28
30.05.2023;17:00;60,4;<7;<10;86;14;17,7;4,6;28
30.05.2023;18:00;64,8;<7;<10;72;14;17,0;5,7;16
30.05.2023;19:00;67,1;<7;<10;66;14;16,1;5,4;23
30.05.2023;20:00;70,3;<7;<10;60;14;15,1;4,7;27
30.05.2023;21:00;74,5;<7;<10;53;14;14,0;3,2;41
30.05.2023;22:00;77,8;<7;<10;40;14;13,2;1,9;63
30.05.2023;23:00;81,6;<7;14;23;14;12,4;1,5;115
30.05.2023;24:00;82,9;<7;13;20;14;12,0;1,9;116
31.05.2023;01:00;84,5;<7;11;24;14;11,5;1,9;116
31.05.2023;02:00;86,7;<7;<10;22;14;10,8;1,5;93
31.05.2023;03:00;89,0;<7;11;12;14;9,9;1,4;107
31.05.2023;04:00;89,6;<7;11;7;14;9,4;1,5;115
31.05.2023;05:00;89,6;<7;14;6;14;9,2;1,1;144
31.05.2023;06:00;83,0;<7;14;11;13;10,7;0,7;72
31.05.2023;07:00;81,2;<7;12;26;13;12,6;1,0;41
31.05.2023;08:00;78,8;<7;<10;42;13;13,6;2,1;44
31.05.2023;09:00;74,6;<7;<10;50;13;15,2;2,6;37
31.05.2023;10:00;67,5;<7;<10;58;13;17,3;2,6;38
31.05.2023;11:00;59,0;<7;<10;76;13;19,0;3,2;46
31.05.2023;12:00;49,8;<7;<10;94;13;20,1;4,3;35
31.05.2023;13:00;46,8;<7;<10;104;12;21,0;4,2;25
31.05.2023;14:00;48,4;;;105;12;21,6;4,0;38
31.05.2023;15:00;46,4;<7;<10;100;12;22,2;4,2;33
31.05.2023;16:00;45,8;<7;<10;105;12;22,3;5,0;25
31.05.2023;17:00;48,2;<7;<10;106;12;22,2;5,0;30
31.05.2023;18:00;47,6;<7;<10;105;12;22,3;4,7;22
31.05.2023;19:00;47,3;<7;<10;101;12;21,9;4,2;18
31.05.2023;20:00;49,0;<7;<10;94;13;21,5;2,9;18
31.05.2023;21:00;52,5;<7;<10;74;13;20,1;1,8;43
31.05.2023;22:00;61,1;<7;20;36;13;18,0;1,3;125
31.05.2023;23:00;65,6;<7;13;;13;16,6;1,5;27
31.05.2023;24:00;70,7;<7;<10;54;13;15,2;1,1;21
01.06.2023;01:00;75,8;<7;<10;45;12;13,7;0,8;336
01.06.2023;02:00;77,3;<7;<10;44;12;12,5;0,7;348
01.06.2023;03:00;80,4;<7;<10;46;12;11,6;0,6;8
01.06.2023;04:00;87,9;<7;<10;37;12;10,1;1,6;345
01.06.2023;05:00;92,0;<7;<10;53;12;9,0;2,6;345
01.06.2023;06:00;95,1;<7;<10;53;13;8,5;2,0;326
01.06.2023;07:00;92,7;<7;<10;56;13;8,7;2,2;338
01.06.2023;08:00;89,8;<7;<10;60;12;8,9;1,5;358
01.06.2023;09:00;84,5;<7;<10;61;13;9,7;1,9;343
01.06.2023;10:00;79,9;<7;<10;64;13;10,6;1,9;308
01.06.2023;11:00;75,9;<7;<10;63;13;12,0;2,2;332
01.06.2023;12:00;75,2;<7;<10;63;14;12,8;2,6;358
01.06.2023;13:00;76,0;<7;<10;63;14;13,0;2,8;321
01.06.2023;14:00;75,9;<7;<10;63;15;13,4;2,9;333
01.06.2023;15:00;76,1;;;63;15;13,7;3,3;322
01.06.2023;16:00;76,0;<7;<10;60;15;13,7;3,4;329
01.06.2023;17:00;72,8;<7;<10;64;15;14,2;3,8;327
01.06.2023;18:00;71,4;<7;<10;67;15;14,5;2,3;358
01.06.2023;19:00;72,4;<7;<10;64;15;14,2;4,3;347
01.06.2023;20:00;73,0;<7;<10;67;15;13,4;3,5;335
01.06.2023;21:00;73,1;<7;<10;58;14;12,9;1,0;304
01.06.2023;22:00;74,7;<7;<10;60;14;12,5;3,2;339
01.06.2023;23:00;75,1;<7;<10;73;14;11,4;3,6;347
01.06.2023;24:00;75,3;<7;<10;;14;11,0;2,7;338
02.06.2023;01:00;74,0;<7;<10;72;14;10,7;3,2;338
02.06.2023;02:00;74,1;<7;<10;73;15;10,3;3,3;338
02.06.2023;03:00;74,6;<7;<10;75;15;9,7;3,6;347
02.06.2023;04:00;73,9;<7;<10;78;15;9,1;3,3;343
02.06.2023;05:00;72,7;<7;<10;80;15;9,0;2,2;356
02.06.2023;06:00;73,6;<7;<10;76;16;9,1;2,2;332
02.06.2023;07:00;75,0;<7;<10;74;16;9,1;2,9;325
02.06.2023;08:00;72,8;<7;<10;79;16;9,3;3,1;343
02.06.2023;09:00;69,9;<7;<10;82;16;9,8;2,6;345
02.06.2023;10:00;67,2;<7;<10;83;16;10,8;2,5;18
02.06.2023;11:00;67,6;<7;<10;83;16;11,9;2,8;40
02.06.2023;12:00;67,8;<7;<10;83;15;12,8;2,7;24
02.06.2023;13:00;67,1;<7;<10;83;15;13,8;3,4;35
02.06.2023;14:00;65,5;<7;<10;83;15;14,8;3,6;34
02.06.2023;15:00;62,2;<7;<10;84;16;15,7;3,5;26
02.06.2023;16:00;57,3;;;86;16;16,6;3,6;43
02.06.2023;17:00;53,8;<7;<10;89;16;17,1;3,9;30
02.06.2023;18:00;51,5;<7;<10;89;16;17,5;4,0;47
02.06.2023;19:00;53,9;<7;<10;87;16;17,3;4,4;58
02.06.2023;20:00;60,9;<7;<10;76;16;16,3;3,2;42
02.06.2023;21:00;64,9;<7;<10;60;16;15,5;2,6;46
02.06.2023;22:00;71,0;<7;<10;55;16;13,9;2,5;78
02.06.2023;23:00;76,4;<7;12;29;17;12,4;1,7;83
02.06.2023;24:00;78,1;<7;<10;41;17;11,4;1,0;74
03.06.2023;01:00;79,1;<7;<10;;17;10,9;1,5;84
03.06.2023;02:00;81,3;<7;<10;22;17;9,6;2,0;52
03.06.2023;03:00;84,7;<7;<10;24;16;8,6;2,0;54
03.06.2023;04:00;84,2;<7;<10;26;16;7,8;2,1;83
03.06.2023;05:00;78,7;<7;<10;25;16;7,7;1,6;103
03.06.2023;06:00;75,8;<7;<10;31;15;8,4;1,9;93
03.06.2023;07:00;72,7;<7;<10;41;15;9,7;2,8;67
03.06.2023;08:00;62,0;<7;<10;54;15;11,4;4,9;52
03.06.2023;09:00;55,2;<7;<10;61;14;13,3;5,5;50
03.06.2023;10:00;49,8;<7;<10;68;14;14,9;5,6;51
03.06.2023;11:00;46,1;<7;<10;74;14;16,1;5,9;53
03.06.2023;12:00;42,2;<7;<10;80;13;17,0;5,7;54
03.06.2023;13:00;38,7;<7;<10;85;13;17,6;5,5;49
03.06.2023;14:00;36,2;<7;<10;84;12;18,2;5,0;47
03.06.2023;15:00;33,1;<7;<10;84;11;18,9;5,1;47
03.06.2023;16:00;32,6;<7;<10;86;11;19,2;4,5;44
03.06.2023;17:00;32,0;;;89;10;19,5;4,7;40
03.06.2023;18:00;32,5;<7;<10;91;10;19,5;4,7;47
03.06.2023;19:00;32,5;<7;<10;91;<10;19,1;5,0;33
03.06.2023;20:00;34,9;<7;<10;87;<10;18,2;4,5;24
03.06.2023;21:00;38,2;<7;<10;78;<10;16,7;3,0;34
03.06.2023;22:00;48,6;<7;14;34;<10;14,6;2,1;120
03.06.2023;23:00;52,6;<7;17;28;<10;13,3;1,6;132
03.06.2023;24:00;52,3;<7;18;26;<10;12,6;1,4;132
04.06.2023;01:00;59,4;<7;16;22;<10;11,0;1,4;101
04.06.2023;02:00;63,2;<7;17;;<10;9,9;0,5;139
04.06.2023;03:00;72,6;<7;14;6;<10;8,8;1,1;210
04.06.2023;04:00;66,4;<7;12;11;<10;8,9;1,4;160
04.06.2023;05:00;72,0;<7;11;9;<10;7,9;0,8;199
04.06.2023;06:00;69,4;<7;<10;12;<10;8,9;0,8;255
04.06.2023;07:00;64,2;<7;12;26;<10;11,6;0,4;
04.06.2023;08:00;57,4;<7;10;48;<10;13,4;0,9;77
04.06.2023;09:00;50,8;<7;<10;64;<10;15,3;2,0;58
04.06.2023;10:00;46,9;<7;<10;80;<10;16,8;2,8;42
04.06.2023;11:00;41,0;<7;<10;90;<10;18,1;4,1;33
04.06.2023;12:00;40,3;<7;<10;93;<10;19,2;4,2;39
04.06.2023;13:00;36,5;<7;<10;98;<10;20,1;4,1;32
04.06.2023;14:00;34,9;<7;<10;97;<10;20,5;3,9;42
04.06.2023;15:00;33,4;<7;<10;101;<10;21,0;3,5;48
04.06.2023;16:00;34,1;<7;<10;104;<10;21,5;3,1;53
04.06.2023;17:00;34,2;<7;<10;106;<10;21,8;3,5;32
04.06.2023;18:00;33,4;;;107;<10;21,7;4,0;21
04.06.2023;19:00;35,3;<7;<10;105;<10;21,3;4,0;13
04.06.2023;20:00;37,8;<7;<10;99;<10;20,6;3,3;18
04.06.2023;21:00;43,4;<7;<10;77;<10;18,8;2,5;54
04.06.2023;22:00;49,8;<7;20;35;<10;16,8;2,0;126
04.06.2023;23:00;55,9;<7;21;30;<10;15,2;2,0;65
04.06.2023;24:00;64,4;<7;<10;45;<10;13,9;1,9;87
05.06.2023;01:00;67,2;<7;13;36;<10;12,9;1,2;115
05.06.2023;02:00;71,4;<7;13;25;<10;12,0;0,8;125
05.06.2023;03:00;76,6;<7;14;;<10;10,9;0,5;239
05.06.2023;04:00;80,5;<7;16;12;<10;10,1;0,7;226
05.06.2023;05:00;83,6;<7;21;<4;<10;9,6;1,2;237
05.06.2023;06:00;82,2;9;24;9;<10;10,1;1,2;224
05.06.2023;07:00;77,0;<7;18;28;<10;12,1;0,6;284
05.06.2023;08:00;74,1;<7;12;40;<10;13,6;1,0;47
05.06.2023;09:00;69,4;<7;10;49;<10;15,0;1,7;46
05.06.2023;10:00;63,5;<7;<10;59;<10;16,7;2,3;45
05.06.2023;11:00;57,8;<7;<10;71;10;18,6;2,5;3
05.06.2023;12:00;51,1;<7;<10;86;10;20,2;3,0;28
05.06.2023;13:00;41,3;<7;<10;99;10;21,5;4,0;37
05.06.2023;14:00;39,5;<7;<10;107;10;22,2;4,0;28
05.06.2023;15:00;34,4;<7;<10;104;10;22,9;3,2;40
05.06.2023;16:00;32,8;<7;<10;106;10;23,3;3,6;30
05.06.2023;17:00;33,1;<7;<10;112;10;23,5;3,6;10
05.06.2023;18:00;36,4;<7;<10;112;11;23,3;4,0;15
05.06.2023;19:00;39,1;;;110;11;22,8;4,0;8
05.06.2023;20:00;39,8;<7;<10;108;11;22,0;3,4;12
05.06.2023;21:00;43,5;<7;<10;88;11;20,6;2,1;33
05.06.2023;22:00;49,9;<7;12;49;11;18,7;2,2;124
05.06.2023;23:00;57,7;<7;12;37;12;16,7;1,5;89
05.06.2023;24:00;61,8;<7;<10;42;12;16,1;2,1;123
06.06.2023;01:00;68,4;<7;12;41;12;15,0;0,9;152
06.06.2023;02:00;74,5;<7;22;29;12;13,6;0,8;280
06.06.2023;03:00;80,6;<7;16;20;13;13,0;0,8;250
06.06.2023;04:00;83,3;;;;13;12,4;1,6;224
06.06.2023;05:00;85,4;<7;22;10;13;11,7;1,4;240
06.06.2023;06:00;85,4;<7;24;14;13;11,8;1,5;239
06.06.2023;07:00;81,2;<7;15;31;13;13,3;0,7;347
06.06.2023;08:00;77,4;<7;<10;48;14;14,7;0,8;353
06.06.2023;09:00;76,5;<7;<10;51;14;15,6;1,5;347
06.06.2023;10:00;74,6;<7;<10;56;14;16,5;1,8;355
06.06.2023;11:00;70,3;<7;<10;64;14;18,0;1,9;346
06.06.2023;12:00;64,3;<7;<10;79;14;19,8;2,5;347
06.06.2023;13:00;58,4;<7;<10;92;15;21,1;2,7;32
06.06.2023;14:00;55,5;<7;<10;98;15;21,5;2,9;22
06.06.2023;15:00;53,0;<7;<10;105;16;22,2;2,7;28
06.06.2023;16:00;52,8;<7;<10;106;16;22,2;4,1;23
06.06.2023;17:00;55,4;<7;<10;102;16;21,9;4,7;33
06.06.2023;18:00;53,9;<7;<10;102;17;21,7;3,8;53
06.06.2023;19:00;52,6;<7;<10;88;17;21,5;2,5;71
06.06.2023;20:00;55,1;<7;<10;74;17;20,9;1,6;73
06.06.2023;21:00;57,5;<7;12;68;17;20,2;1,0;34
06.06.2023;22:00;63,4;<7;13;56;18;19,2;1,2;43
06.06.2023;23:00;63,0;<7;13;65;18;18,8;1,5;36
06.06.2023;24:00;66,4;<7;11;60;18;18,1;1,7;54
07.06.2023;01:00;67,4;<7;<10;78;18;17,6;2,8;43
07.06.2023;02:00;68,6;<7;<10;76;18;17,1;2,3;19
07.06.2023;03:00;71,0;<7;<10;70;18;16,2;1,9;1
07.06.2023;04:00;75,7;<7;<10;64;18;15,3;2,0;3
07.06.2023;05:00;80,3;;;;18;14,5;1,5;3
07.06.2023;06:00;83,3;<7;<10;55;18;14,0;2,1;18
07.06.2023;07:00;85,4;<7;<10;49;18;13,7;1,7;47
07.06.2023;08:00;86,6;<7;11;43;18;13,9;1,0;10
07.06.2023;09:00;85,7;<7;12;45;18;14,3;1,5;43
07.06.2023;10:00;86,5;<7;11;44;18;14,6;1,6;47
07.06.2023;11:00;86,1;<7;<10;46;18;15,6;1,1;281
07.06.2023;12:00;82,2;<7;<10;56;18;17,0;1,6;21
07.06.2023;13:00;76,9;<7;<10;72;18;18,6;2,8;23
07.06.2023;14:00;74,3;<7;<10;81;18;19,5;2,9;34
07.06.2023;15:00;71,8;<7;<10;87;18;20,0;3,4;42
07.06.2023;16:00;70,2;<7;<10;91;18;20,6;4,1;22
07.06.2023;17:00;70,0;<7;<10;88;19;20,8;4,1;358
07.06.2023;18:00;63,9;<7;<10;100;19;20,9;4,9;23
07.06.2023;19:00;64,2;<7;<10;98;19;21,0;4,1;22
07.06.2023;20:00;66,8;<7;<10;88;19;20,6;2,7;14
07.06.2023;21:00;69,9;<7;10;80;19;19,8;2,5;31
07.06.2023;22:00;74,2;<7;14;46;19;18,6;1,7;110
07.06.2023;23:00;73,3;<7;22;41;19;17,8;0,7;143
07.06.2023;24:00;74,4;<7;22;29;19;17,4;1,3;83
08.06.2023;01:00;81,2;<7;17;29;19;15,9;1,1;57
08.06.2023;02:00;83,1;<7;19;35;20;15,2;0,8;35
08.06.2023;03:00;85,0;<7;17;37;21;14,5;0,8;73
08.06.2023;04:00;86,1;<7;16;29;22;14,1;0,5;4
08.06.2023;05:00;87,0;<7;17;14;23;14,1;0,9;145